Station BUFN6 - 9063020 - Buffalo, NY Image indicating link to RSS feed of recent meteorological observations for station BUFN6


Conditions at BUFN6 as of
(10:18 pm EDT on 05/30/2023)
0218 GMT on 05/31/2023:
     

Click on the graph icon in the table below to see a time series plot of the last five days of that observation.

5-day plot - Wind Direction Wind Direction (WDIR):ENE ( 70 deg true )
5-day plot - Wind Speed Wind Speed (WSPD): 5.1 kts
5-day plot - Wind Gust Wind Gust (GST): 6.0 kts
5-day plot - Atmospheric Pressure Atmospheric Pressure (PRES):30.06 in
5-day plot - Air Temperature Air Temperature (ATMP): 76.6 °F
5-day plot - Water Temperature Water Temperature (WTMP): 61.3 °F
5-day plot - Dew Point Dew Point (DEWP): 57.2 °F
5-day plot - Wind Speed at 10 Meters Wind Speed at 10 meters (WSPD10M): 5.8 kts
5-day plot - Wind Speed at 20 Meters Wind Speed at 20 meters (WSPD20M): 5.8 kts
5-day plot -  Wind Speed, Wind Gust and Atmospheric Pressure Combined plot of Wind Speed, Gust, and Air Pressure
NOS Water Level Observation Network Water Level
Previous observations
TIME
(EDT)
5-day plot - Wind Direction
WDIR
 
5-day plot - Wind Speed
WSPD
kts
5-day plot - Wind Gust
GST
kts
5-day plot - Wave Height
WVHT
ft
5-day plot - Dominant Wave Period
DPD
sec
5-day plot - Average Wave Period
APD
sec
5-day plot - Mean Wave Direction
MWD
 
5-day plot - Atmospheric Pressure
PRES
in
5-day plot - Pressure Tendency
PTDY
in
5-day plot - Air Temperature
ATMP
°F
5-day plot - Water Temperature
WTMP
°F
5-day plot - Dew Point
DEWP
°F
5-day plot - Salinity
SAL
psu
5-day plot - Visibility
VIS
nmi
5-day plot - Tide (above MLLW)
TIDE
ft
2023-05-30 10:12 pm E 4.1 5.1----30.06- 73.8 61.5 55.9---
2023-05-30 10:06 pm E 1.0 1.9----30.06- 72.1 61.3 53.4---
2023-05-30 10:00 pmENE 1.9 6.0----30.06- 74.5 61.3 53.8---
2023-05-30 09:54 pmENE 1.9 2.9----30.06- 73.4 61.3 53.6---
2023-05-30 09:48 pm- 0.0 1.9----30.06- 72.1 60.1 51.8---
2023-05-30 09:42 pm- 0.0 1.0----30.06- 71.6 61.2 51.6---
2023-05-30 09:36 pm- 0.0 1.0----30.06- 70.9 61.2 52.7---
2023-05-30 09:30 pm- 0.0 0.0----30.06- 72.3 61.2 52.0---
2023-05-30 09:24 pm- 0.0 1.0----30.06- 72.7 62.1 51.6---
2023-05-30 09:18 pm- 0.0 1.0----30.06- 72.0 61.7 52.5---
2023-05-30 09:12 pmESE 1.0 6.0----30.06- 72.3 61.3 53.8---
2023-05-30 09:06 pm NE 5.1 7.0----30.06- 72.0 60.6 53.8---
2023-05-30 09:00 pmSSE 1.9 2.9----30.06+0.00 72.0 60.3----
2023-05-30 08:54 pm S 2.9 2.9----30.06- 71.8 60.8----
2023-05-30 08:48 pm S 4.1 5.1----30.06- 72.1 61.5 52.7---
2023-05-30 08:42 pm S 2.9 5.1----30.06- 72.9 61.3 51.4---
2023-05-30 08:36 pm- 0.0 1.0----30.06- 73.8 60.8 53.8---
2023-05-30 08:30 pm- 0.0 0.0----30.06- 74.5 61.2 53.6---
2023-05-30 08:24 pm- 0.0 1.0----30.06- 74.5 61.5 54.0---
2023-05-30 08:18 pm- 0.0 1.9----30.06- 74.3 61.0 54.7---
2023-05-30 08:12 pmESE 1.0 1.9----30.06- 74.1 61.3 53.8---
2023-05-30 08:06 pm SE 1.9 1.9----30.06- 73.9 62.8 54.0---
2023-05-30 08:00 pmESE 1.0 2.9----30.06+0.00 73.9 61.5 54.0---
2023-05-30 07:54 pm SE 1.9 4.1----30.06- 73.8 61.2 53.1---
2023-05-30 07:48 pm SE 2.9 4.1----30.06- 73.2 61.3 53.6---
2023-05-30 07:42 pm SE 4.1 5.1----30.06- 72.7 61.7 55.0---
2023-05-30 07:36 pm SE 5.1 6.0----30.06- 72.0 61.5 55.8---
2023-05-30 07:30 pmSSE 2.9 4.1----30.06- 72.9 60.6 55.0---
2023-05-30 07:24 pm SE 1.0 2.9----30.05- 73.2 60.6 55.4---
2023-05-30 07:18 pm SE 1.9 4.1----30.05- 72.7 60.6 55.6---
2023-05-30 07:12 pmSSE 4.1 5.1----30.05- 72.0 60.1 55.9---
2023-05-30 07:06 pmSSE 4.1 6.0----30.05- 71.6 60.6 56.5---
2023-05-30 07:00 pmSSE 4.1 5.1------ 71.4 61.3 56.7---
2023-05-30 06:54 pm SE 5.1 6.0------ 70.9 61.7 57.2---
2023-05-30 06:48 pm SE 6.0 6.0----30.05- 70.7 61.5 57.6---
2023-05-30 06:42 pmSSE 4.1 4.1----30.05- 71.8 61.5 57.2---
2023-05-30 06:36 pm SE 4.1 5.1----30.05- 71.8 61.9 57.6---
2023-05-30 06:30 pm SE 4.1 5.1----30.05- 72.0 61.9 57.6---
2023-05-30 06:24 pm SE 4.1 5.1----30.05- 72.0 62.8 57.6---
2023-05-30 06:18 pmSSE 2.9 4.1----30.05- 72.7 61.7 57.2---
2023-05-30 06:12 pm SE 2.9 5.1----30.05- 72.7 61.3 57.6---
2023-05-30 06:06 pmSSE 4.1 5.1----30.05- 72.0 61.9 56.7---
2023-05-30 06:00 pmSSE 4.1 5.1----30.05-0.03 72.7 62.1 56.5---
2023-05-30 05:54 pmSSE 2.9 4.1----30.05- 73.2 63.0 55.9---
2023-05-30 05:48 pmSSE 2.9 5.1----30.05- 73.4 62.8 56.7---
2023-05-30 05:42 pmSSE 4.1 5.1----30.05- 72.1 62.8 57.0---
2023-05-30 05:36 pm S 5.1 8.0----30.05- 70.7 63.7 57.2---
2023-05-30 05:30 pm SW 8.0 8.9----30.06- 71.4 64.0 56.3---
2023-05-30 05:24 pm SW 7.0 8.9----30.06- 71.8 63.1 55.6---
2023-05-30 05:18 pm SW 7.0 8.0----30.06- 72.3 62.2 55.8---
2023-05-30 05:12 pm SW 7.0 8.0----30.06- 72.5 62.1 55.6---
2023-05-30 05:06 pm SW 7.0 8.0----30.06- 72.3 62.6 55.6---
2023-05-30 05:00 pm SW 7.0 8.0----30.06-0.04 73.0 61.5 55.0---
2023-05-30 04:54 pm SW 8.0 8.0----30.06- 73.2 61.5 55.0---
2023-05-30 04:48 pm-------30.06- 73.9 61.5 54.5---
2023-05-30 04:42 pm-------30.06- 73.4 61.2 54.7---
2023-05-30 04:36 pm-------30.06- 73.4 60.6 54.7---
2023-05-30 04:30 pmWSW 7.0 8.0------ 73.9 61.5 53.6---
2023-05-30 04:24 pmWSW 8.0 8.0------ 73.8 60.6 54.0---
2023-05-30 04:18 pmWSW 8.0 8.0----30.07- 73.9 60.6 52.9---
2023-05-30 04:12 pmWSW 8.0 8.9----30.07- 73.4 60.6 53.6---
2023-05-30 04:06 pmWSW 8.0 8.9----30.07- 73.6 60.4 54.3---
2023-05-30 04:00 pmWSW 8.0 8.9----30.07-0.03 73.6 60.1 54.0---
2023-05-30 03:54 pmWSW 8.0 8.0----30.07- 73.4 60.8 53.6---
2023-05-30 03:48 pmWSW 8.0 8.0----30.07- 73.8- 53.4---
2023-05-30 03:42 pm SW 8.0 8.9----30.08- 74.5- 51.4---
2023-05-30 03:36 pm SW 8.0 8.0----30.08- 73.9- 52.0---
2023-05-30 03:30 pm SW 5.1 6.0----30.08- 73.2 61.0 54.7---
2023-05-30 03:24 pmSSW 4.1 5.1----30.08- 73.9 61.0 54.7---
2023-05-30 03:18 pm SW 4.1 5.1----30.08- 74.5 60.4 54.1---
2023-05-30 03:12 pm SW 4.1 5.1----30.08- 74.7 60.3 55.0---
2023-05-30 03:06 pmWSW 4.1 4.1----30.08- 75.2 60.1 54.5---
2023-05-30 03:00 pmWSW 2.9 2.9----30.08-0.03 76.1 60.4 55.4---
2023-05-30 02:54 pm SW 2.9 4.1----30.08- 75.7 60.8 55.2---
2023-05-30 02:48 pm SW 2.9 4.1----30.09- 75.7 60.3 54.9---
2023-05-30 02:42 pmSSW 1.9 4.1----30.09- 75.6 60.3 54.3---
2023-05-30 02:36 pmSSW 1.9 2.9----30.09- 75.6 60.4 54.0---
2023-05-30 02:30 pmSSW 2.9 4.1----30.09- 75.4 60.1 51.3---
2023-05-30 02:24 pmSSW 2.9 4.1----30.09- 75.7 60.8 51.3---
2023-05-30 02:18 pmSSW 2.9 4.1----30.09- 75.6 60.6 51.4---
2023-05-30 02:12 pmSSW 2.9 2.9----30.09- 75.7 60.6 48.7---
2023-05-30 02:06 pmSSW 2.9 4.1----30.09- 74.7 60.3 50.4---
2023-05-30 02:00 pmSSW 2.9 4.1----30.09-0.02 74.1 60.3 54.0---
2023-05-30 01:54 pmSSW 2.9 5.1----30.09- 73.4 61.0 55.8---
2023-05-30 01:48 pmSSW 2.9 4.1----30.10- 74.7 61.0 53.1---
2023-05-30 01:42 pmSSW 2.9 4.1----30.10- 74.8 60.8 51.1---
2023-05-30 01:36 pmSSW 1.9 2.9----30.10- 75.4 60.1 53.1---
2023-05-30 01:30 pmSSW 1.9 1.9----30.10- 77.9 60.1 51.3---
2023-05-30 01:24 pm- 0.0 1.9----30.10- 78.3 60.3 47.8---
2023-05-30 01:18 pm- 0.0 2.9----30.10- 76.5 61.2----
2023-05-30 01:12 pm SW 1.9 4.1----30.10- 75.4 60.4----
2023-05-30 01:06 pm SW 1.9 5.1----30.10- 74.5 60.3----
2023-05-30 01:00 pm SW 2.9 4.1----30.10-0.01 74.1 59.9 49.6---
2023-05-30 12:54 pmWSW 2.9 4.1----30.10- 72.9 59.4 51.3---
2023-05-30 12:48 pm W 2.9 4.1----30.10- 72.9 59.7 47.3---
2023-05-30 12:42 pm W 2.9 4.1----30.10- 72.7 60.1 47.5---
2023-05-30 12:36 pm W 2.9 2.9----30.10- 72.3 60.3 47.8---
2023-05-30 12:30 pm W 4.1 4.1----30.11- 71.8 60.3 48.0---
2023-05-30 12:24 pm W 4.1 4.1----30.11- 70.3 60.3 48.9---
2023-05-30 12:18 pm W 2.9 4.1----30.11- 69.4 60.3 52.9---
2023-05-30 12:12 pm W 4.1 4.1----30.11- 69.4 60.3 51.4---
2023-05-30 12:06 pm W 4.1 4.1----30.11- 69.1 59.9 50.9---
2023-05-30 12:00 pm W 2.9 2.9----30.11+0.00 69.3 60.1 51.8---
2023-05-30 11:54 am W 2.9 2.9----30.11- 68.4 60.3 51.8---
2023-05-30 11:48 am W 2.9 4.1----30.11- 68.2 60.1 54.1---
2023-05-30 11:42 am W 4.1 4.1----30.11- 69.6 59.7 50.7---
2023-05-30 11:36 am W 4.1 4.1----30.11- 70.2 59.7 48.7---
2023-05-30 11:30 am W 4.1 4.1----30.11- 69.8 60.1 48.2---
2023-05-30 11:24 am W 4.1 5.1----30.11- 69.1 60.3 48.0---
2023-05-30 11:18 am W 4.1 4.1----30.11- 68.2 60.1 48.9---
2023-05-30 11:12 am W 4.1 4.1----30.11- 68.2 59.9 48.6---
2023-05-30 11:06 am W 4.1 4.1----30.11- 68.2 60.1 48.0---
2023-05-30 11:00 am W 4.1 5.1----30.11+0.01 68.2 60.1 48.4---
2023-05-30 10:54 amWNW 4.1 4.1----30.11- 68.0 60.1 49.6---
2023-05-30 10:48 am W 2.9 4.1------ 67.6 60.3 49.6---
2023-05-30 10:42 am W 2.9 2.9------ 67.5 60.3 49.8---
2023-05-30 10:36 am NW 1.9 2.9------ 66.7 60.6 52.0---
2023-05-30 10:30 am W 1.9 2.9------ 69.1 60.6 50.7---
2023-05-30 10:24 am SW 2.9 2.9------ 70.0 60.1 49.8---
2023-05-30 10:18 amSSW 2.9 2.9----30.12- 68.5 60.8 51.1---
2023-05-30 10:12 amSSW 2.9 2.9----30.12- 68.2 60.6 50.5---
2023-05-30 10:06 amSSW 2.9 4.1----30.12- 67.6 60.3 50.4---
2023-05-30 10:00 am S 4.1 5.1----30.12+0.03 67.3 59.5 50.2---
2023-05-30 09:54 am S 4.1 5.1----30.12- 67.3 59.5 50.5---
2023-05-30 09:48 am S 4.1 5.1----30.12- 66.7 59.5 50.5---
2023-05-30 09:42 am S 5.1 6.0----30.12- 66.7 59.9 50.5---
2023-05-30 09:36 amSSE 6.0 6.0----30.12- 66.9 60.1 50.2---
2023-05-30 09:30 amSSE 6.0 7.0----30.11- 66.6 60.1 50.9---
2023-05-30 09:24 amSSE 5.1 7.0----30.11- 67.1 59.9 51.3---
2023-05-30 09:18 amSSE 7.0 8.0----30.11- 66.4- 50.9---
2023-05-30 09:12 amSSE 6.0 8.0----30.11- 66.6- 50.9---
2023-05-30 09:06 amSSE 5.1 8.0----30.11- 66.9- 51.1---
2023-05-30 09:00 amSSE 5.1 8.0----30.11+0.05 66.9 59.7 50.9---
2023-05-30 08:54 amSSE 5.1 7.0----30.11- 66.9 60.3 50.9---
2023-05-30 08:48 amSSE 4.1 6.0----30.11- 67.5 60.8 51.3---
2023-05-30 08:42 amSSE 5.1 7.0----30.11- 67.1 61.0 51.1---
2023-05-30 08:36 amSSE 5.1 8.0----30.11- 67.1 61.0 51.1---
2023-05-30 08:30 amSSE 5.1 8.0----30.11- 66.9 60.1 51.1---
2023-05-30 08:24 amSSE 5.1 8.0----30.11- 66.6 60.1 51.1---
2023-05-30 08:18 am SE 6.0 8.9----30.11- 66.7 60.3 50.9---
2023-05-30 08:12 am SE 7.0 8.9----30.11- 66.6 60.3 50.9---
2023-05-30 08:06 am SE 7.0 9.9----30.10- 66.4 60.3 51.3---
2023-05-30 08:00 am SE 7.0 8.9----30.10+0.05 66.2 60.6 51.4---
2023-05-30 07:54 amSSE 7.0 8.9----30.10- 65.8 60.3 51.3---
2023-05-30 07:48 amSSE 7.0 9.9----30.10- 65.8 60.1 51.4---
2023-05-30 07:42 amSSE 6.0 8.9----30.10- 65.8 59.9 51.3---
2023-05-30 07:36 amSSE 5.1 7.0----30.10- 65.8 59.9 51.3---
2023-05-30 07:30 amSSE 6.0 8.0----30.09- 66.0 60.3 51.3---
2023-05-30 07:24 amSSE 6.0 8.9----30.09- 65.8 59.9 51.3---
2023-05-30 07:18 amSSE 6.0 8.0----30.09- 65.8 60.3 51.1---
2023-05-30 07:12 amSSE 7.0 8.9----30.09- 66.0 60.4 51.3---
2023-05-30 07:06 amSSE 7.0 9.9----30.09- 66.4 60.3 51.1---
2023-05-30 07:00 amSSE 8.0 11.1----30.09+0.04 66.7 60.1 51.3---
2023-05-30 06:54 am SE 8.9 12.0----30.08- 66.7 60.4 51.3---
2023-05-30 06:48 am SE 7.0 9.9----30.08- 66.4 60.3 51.6---
2023-05-30 06:42 am SE 7.0 8.9----30.08- 65.7 59.9 51.8---
2023-05-30 06:36 amESE 6.0 8.9----30.08- 64.8 59.7 50.5---
2023-05-30 06:30 am SE 7.0 8.9----30.08- 64.8 60.1 51.3---
2023-05-30 06:24 amESE 6.0 8.0----30.07- 64.4 60.3 50.0---
2023-05-30 06:18 am SE 5.1 7.0----30.07- 64.4 60.3 50.4---
2023-05-30 06:12 am SE 5.1 7.0----30.07- 64.0 60.3 49.5---
2023-05-30 06:06 amESE 5.1 7.0----30.06- 64.0 60.3 48.7---
2023-05-30 06:00 amESE 4.1 7.0----30.06+0.03 63.9 60.3 48.4---
2023-05-30 05:54 amESE 4.1 6.0----30.06- 63.9 60.3 47.8---
2023-05-30 05:48 amESE 5.1 7.0----30.06- 63.7 60.4 47.8---
2023-05-30 05:42 am E 4.1 6.0----30.06- 62.2 60.4 46.9---
2023-05-30 05:36 am E 5.1 7.0----30.06- 61.7 60.4 46.2---
2023-05-30 05:30 am E 5.1 6.0----30.06- 61.7 60.4 45.9---
2023-05-30 05:24 am E 4.1 6.0----30.06- 61.5 60.6 45.3---
2023-05-30 05:18 am E 5.1 7.0----30.06- 61.5 60.6 44.8---
2023-05-30 05:12 am E 7.0 8.0----30.06- 61.7 60.8 44.6---
2023-05-30 05:06 am E 6.0 8.0----30.06- 61.9 60.8 44.6---
2023-05-30 05:00 am E 7.0 8.9----30.05+0.01 61.9 60.8 44.1---
2023-05-30 04:54 am E 6.0 8.9----30.05- 61.9 60.8 44.1---
2023-05-30 04:48 am E 7.0 9.9----30.05- 61.9 60.8 43.7---
2023-05-30 04:42 am E 8.0 11.1----30.05- 61.9 60.4 43.2---
2023-05-30 04:36 am E 9.9 11.1----30.05- 62.2 60.4 43.0---
2023-05-30 04:30 amENE 9.9 12.0----30.04- 62.2 60.4 42.8---
2023-05-30 04:24 amENE 8.9 11.1----30.04- 62.8 60.4 42.6---
2023-05-30 04:18 am E 8.9 11.1----30.04- 62.8 60.4 42.6---
2023-05-30 04:12 am E 8.9 11.1----30.04- 63.0 60.4 42.4---
2023-05-30 04:06 am E 8.0 9.9----30.04- 63.1 60.4 42.3---
2023-05-30 04:00 am E 7.0 11.1----30.04+0.00 63.3- 42.4---
2023-05-30 03:54 am E 7.0 11.1----30.04- 63.9- 42.3---
2023-05-30 03:48 am E 8.0 12.0----30.04- 63.9 60.6 41.9---
2023-05-30 03:42 am E 8.0 14.0----30.04- 64.2 60.6 41.9---
2023-05-30 03:36 am E 9.9 13.0----30.04- 64.6 60.6 41.7---
2023-05-30 03:30 amENE 9.9 12.0----30.03- 65.3 60.4 41.7---
2023-05-30 03:24 amENE 7.0 11.1----30.03- 65.1 60.4 41.7---
2023-05-30 03:18 amENE 8.0 12.0----30.03- 65.1 60.8 41.7---
2023-05-30 03:12 amENE 8.0 13.0----30.03- 65.1 60.4 41.5---
2023-05-30 03:06 am E 6.0 12.0----30.03- 65.1 60.1 41.7---
2023-05-30 03:00 am E 8.0 11.1----30.03-0.01 64.9 60.3 41.5---
2023-05-30 02:54 am E 6.0 8.9----30.03- 64.9 60.3 41.5---
2023-05-30 02:48 am E 7.0 11.1----30.04- 65.1 60.4 41.5---
2023-05-30 02:42 amENE 7.0 13.0----30.04- 65.7 60.3 41.5---
2023-05-30 02:36 amENE 8.0 11.1----30.04- 65.5 60.3 41.4---
2023-05-30 02:30 am E 8.0 11.1----30.04- 65.5 60.3 41.4---
2023-05-30 02:24 amENE 8.0 11.1----30.04- 65.5 60.3 41.5---
2023-05-30 02:18 amENE 8.0 11.1----30.04- 65.3 60.3 41.5---
2023-05-30 02:12 amENE 8.0 11.1----30.04- 65.1 60.3 41.7---
2023-05-30 02:06 amENE 7.0 9.9----30.04- 65.1 60.3 42.1---
2023-05-30 02:00 am E 7.0 11.1----30.04+0.00 65.7 60.3 41.2---
2023-05-30 01:54 amENE 7.0 11.1----30.05- 65.7 60.1 41.0---
2023-05-30 01:48 am E 7.0 11.1----30.05- 66.2 60.1 40.8---
2023-05-30 01:42 amENE 7.0 11.1----30.05- 66.6 60.1 40.8---
2023-05-30 01:36 amENE 7.0 12.0----30.05- 66.7 60.1 40.6---
2023-05-30 01:30 amENE 8.0 13.0----30.05- 67.6 60.3 40.6---
2023-05-30 01:24 amENE 5.1 14.0----30.04- 67.6 60.3 41.0---
2023-05-30 01:18 amENE 7.0 12.0----30.04- 67.8 60.1 41.2---
2023-05-30 01:12 amENE 7.0 11.1----30.04- 67.6 60.1 40.5---
2023-05-30 01:06 amENE 8.9 13.0----30.04- 67.6 60.1 40.5---
2023-05-30 01:00 amENE 7.0 12.0----30.04+0.01 67.6 59.9 40.6---
2023-05-30 12:54 amENE 8.0 13.0----30.04- 67.6 59.7 40.5---
2023-05-30 12:48 amENE 8.9 13.0----30.04- 67.8 59.9 40.5---
2023-05-30 12:42 amENE 8.0 14.0----30.04- 67.8 60.1 40.3---
2023-05-30 12:36 amENE 8.9 14.0----30.04- 67.8 59.9 39.9---
2023-05-30 12:30 amENE 8.0 15.0----30.05- 68.0 60.1 39.9---
2023-05-30 12:24 amENE 8.9 15.0----30.05- 68.4 60.1 39.9---
2023-05-30 12:18 am-------30.04- 68.4 60.3 39.6---
2023-05-30 12:12 am-------30.04- 68.2 60.1 39.6---
2023-05-30 12:06 am-------30.04- 68.2 59.9 39.2---
2023-05-30 12:00 amENE 8.9 15.0----30.04+0.04 68.4 59.9 39.4---
2023-05-29 11:54 pmENE 8.0 12.0----30.04- 68.4 60.3 38.3---
2023-05-29 11:48 pmENE 8.9 14.0----30.04- 68.4 60.6 38.7---
2023-05-29 11:42 pmENE 8.9 13.0----30.04- 68.5 60.8 38.5---
2023-05-29 11:36 pmENE 7.0 14.0----30.04- 68.9 60.3 38.3---
2023-05-29 11:30 pmENE 8.9 14.0----30.04- 69.1 59.7 38.1---
2023-05-29 11:24 pmENE 9.9 14.0----30.04- 69.1 60.4 37.9---
2023-05-29 11:18 pmENE 8.9 13.0----30.04- 69.1 60.1 37.8---
2023-05-29 11:12 pmENE 8.0 12.0----30.04- 69.1 60.3 37.2---
2023-05-29 11:06 pmENE 7.0 11.1----30.04- 69.3 60.6 37.0---
2023-05-29 11:00 pmENE 8.0 15.0----30.04+0.04 69.4 60.6----
2023-05-29 10:54 pmENE 8.0 11.1----30.04- 69.6 60.8----
2023-05-29 10:48 pmENE 5.1 11.1----30.04- 69.6 60.6 37.4---
2023-05-29 10:42 pmENE 7.0 9.9----30.04- 70.0 60.4 36.9---
2023-05-29 10:36 pmENE 7.0 13.0----30.04- 70.3 60.3 37.0---
2023-05-29 10:30 pmENE 8.0 12.0------ 70.3 60.6 37.4---
2023-05-29 10:24 pmENE 8.0 13.0------ 70.5 61.0 36.9---
2023-05-29 10:18 pmENE 8.0 13.0----30.03- 70.7 60.8 37.0---
2023-05-29 10:12 pmENE 8.9 13.0----30.03- 70.9 61.0 36.3---
2023-05-29 10:06 pmENE 7.0 12.0----30.03- 71.2 61.2 36.5---
2023-05-29 10:00 pmENE 8.0 12.0----30.03+0.05 71.4 61.3 36.7---
2023-05-29 09:54 pmENE 8.9 13.0----30.03- 71.6 61.9 36.3---